Location: Hylvaty SDH
(49.9612°N, 16.4057°E)
Time: 23:06:27
(UTC+02:00)

A-11 Canister half - Pass Details

Date: 07 October 2020
Orbit: 1515 x 1685 km, 47.2° (Epoch: 20 October)

Event Time Altitude Azimuth Distance (km) Brightness Sun altitude
Exits shadow 01:08:06 11° 93° (E) 3,730 11.0 -45.3°
Drops below altitude 10° 01:08:14 10° 92° (E) 3,754 11.0 -45.3°
Sets 01:12:43 0° 74° (ENE) 4,725 11.8 -45.2°
